Weather History for Pine River, MN

Change the Weather History Date:

Monday, March 25, 2013

  Actual Average Record
Temperature  
Mean Temperature 27 °F -  
Max Temperature 33 °F 41 °F 64 °F (2007)
Min Temperature 21 °F 21 °F 0 °F (2014)
Degree Days  
Heating Degree Days 38    
Moisture  
Dew Point 15 °F    
Average Humidity 59    
Maximum Humidity 69    
Minimum Humidity 48    
Precipitation  
Precipitation 0.00 in - - ()
Sea Level Pressure  
Sea Level Pressure 30.19 in    
Wind  
Wind Speed 9 mph (NNW)    
Max Wind Speed 18 mph    
Max Gust Speed 24 mph    
Visibility 10 miles    
Events      
Averages and records for this station are not official NWS values.
T = Trace of Precipitation, MM = Missing Value Source: NWS Daily Summary

Daily Weather History Graph

Daily Weather History Graph

Search for Another Location

Airport:

Trip Planner

Search our weather history database for the weather conditions in past years. The results will help you decide how hot, cold, wet, or windy it might be!

Date:

Astronomy

Mar. 25, 2013 Rise Set
Actual Time 7:10 AM CDT 7:37 PM CDT
Civil Twilight 6:39 AM CDT 8:07 PM CDT
Nautical Twilight 6:03 AM CDT 8:43 PM CDT
Astronomical Twilight 5:26 AM CDT 9:21 PM CDT
Moon 6:06 PM CDT (3/25) 5:59 AM CDT (3/25)
Length of Visible Light 13h 28m
Length of Day
12h 27m
Waxing Gibbous, 96% of the Moon is Illuminated
Mar 25
Waxing Gibbous
Mar 27
Full
Apr 2
Last Quarter
Apr 10
New
Apr 18
First Quarter

Hourly Weather History & Observations

Time (CDT) Temp. Windchill Dew Point Humidity Pressure Visibility Wind Dir Wind Speed Gust Speed Precip Events Conditions
12:12 AM 26.6 °F 18.2 °F 15.8 °F 64% 30.13 in 10.0 mi NNE 8.1 mph - N/A   Overcast
12:33 AM 26.6 °F 17.5 °F 15.8 °F 64% 30.13 in 10.0 mi North 9.2 mph - N/A   Overcast
12:52 AM 26.6 °F 17.5 °F 15.8 °F 64% 30.13 in 10.0 mi North 9.2 mph - N/A   Overcast
1:13 AM 26.6 °F 17.5 °F 15.8 °F 64% 30.13 in 10.0 mi North 9.2 mph - N/A   Overcast
1:33 AM 26.6 °F 17.5 °F 15.8 °F 64% 30.13 in 10.0 mi North 9.2 mph - N/A   Overcast
1:51 AM 24.8 °F 15.3 °F 15.8 °F 69% 30.13 in 10.0 mi North 9.2 mph - N/A   Overcast
2:12 AM 24.8 °F 16.1 °F 15.8 °F 69% 30.13 in 10.0 mi North 8.1 mph - N/A   Overcast
2:33 AM 24.8 °F 15.3 °F 15.8 °F 69% 30.13 in 10.0 mi North 9.2 mph - N/A   Overcast
2:53 AM 24.8 °F 15.3 °F 14.0 °F 64% 30.13 in 10.0 mi North 9.2 mph - N/A   Overcast
3:12 AM 24.8 °F 15.3 °F 14.0 °F 64% 30.13 in 10.0 mi NNW 9.2 mph - N/A   Overcast
3:33 AM 24.8 °F 16.1 °F 14.0 °F 64% 30.13 in 10.0 mi NNW 8.1 mph - N/A   Overcast
3:52 AM 23.0 °F 13.9 °F 14.0 °F 68% 30.13 in 10.0 mi NNW 8.1 mph - N/A   Scattered Clouds
4:13 AM 23.0 °F 13.9 °F 12.2 °F 63% 30.13 in 10.0 mi NNW 8.1 mph - N/A   Clear
4:53 AM 21.2 °F 12.6 °F 12.2 °F 68% 30.13 in 10.0 mi NNW 6.9 mph - N/A   Clear
5:33 AM 21.2 °F 11.7 °F 12.2 °F 68% 30.14 in 10.0 mi North 8.1 mph - N/A   Clear
5:53 AM 21.2 °F 11.7 °F 12.2 °F 68% 30.15 in 10.0 mi North 8.1 mph - N/A   Clear
6:13 AM 21.2 °F 11.7 °F 12.2 °F 68% 30.15 in 10.0 mi NNW 8.1 mph - N/A   Scattered Clouds
6:33 AM 21.2 °F 11.7 °F 12.2 °F 68% 30.16 in 10.0 mi North 8.1 mph - N/A   Mostly Cloudy
6:52 AM 21.2 °F 10.9 °F 12.2 °F 68% 30.16 in 10.0 mi North 9.2 mph - N/A   Overcast
7:12 AM 21.2 °F 10.9 °F 12.2 °F 68% 30.17 in 10.0 mi North 9.2 mph - N/A   Overcast
7:33 AM 21.2 °F 11.7 °F 12.2 °F 68% 30.17 in 10.0 mi North 8.1 mph - N/A   Scattered Clouds
7:53 AM 21.2 °F 11.7 °F 12.2 °F 68% 30.18 in 10.0 mi North 8.1 mph - N/A   Clear
8:12 AM 21.2 °F 10.1 °F 12.2 °F 68% 30.18 in 10.0 mi North 10.4 mph 16.1 mph N/A   Clear
8:32 AM 21.2 °F 9.5 °F 12.2 °F 68% 30.19 in 10.0 mi North 11.5 mph - N/A   Clear
8:51 AM 23.0 °F 11.7 °F 12.2 °F 63% 30.19 in 10.0 mi North 11.5 mph - N/A   Clear
9:12 AM 23.0 °F 11.7 °F 12.2 °F 63% 30.20 in 10.0 mi North 11.5 mph - N/A   Clear
9:32 AM 24.8 °F 14.0 °F 12.2 °F 59% 30.20 in 10.0 mi North 11.5 mph - N/A   Clear
9:53 AM 24.8 °F 13.4 °F 12.2 °F 59% 30.20 in 10.0 mi North 12.7 mph - N/A   Clear
10:13 AM 24.8 °F 14.6 °F 12.2 °F 59% 30.20 in 10.0 mi North 10.4 mph - N/A   Clear
10:32 AM 24.8 °F 16.1 °F 12.2 °F 59% 30.20 in 10.0 mi NNW 8.1 mph - N/A   Clear
10:53 AM 26.6 °F 18.2 °F 12.2 °F 55% 30.20 in 10.0 mi NNW 8.1 mph - N/A   Clear
11:13 AM 26.6 °F 16.8 °F 14.0 °F 59% 30.20 in 10.0 mi NW 10.4 mph - N/A   Clear
11:33 AM 28.4 °F 20.4 °F 15.8 °F 59% 30.21 in 10.0 mi NNW 8.1 mph - N/A   Clear
11:52 AM 28.4 °F 18.0 °F 15.8 °F 59% 30.20 in 10.0 mi NNW 12.7 mph 17.3 mph N/A   Clear
12:13 PM 30.2 °F 20.8 °F 15.8 °F 55% 30.20 in 10.0 mi North 11.5 mph 17.3 mph N/A   Clear
12:32 PM 30.2 °F 20.8 °F 15.8 °F 55% 30.20 in 10.0 mi North 11.5 mph 21.9 mph N/A   Scattered Clouds
12:53 PM 30.2 °F 18.1 °F 15.8 °F 55% 30.20 in 10.0 mi North 18.4 mph 23.0 mph N/A   Scattered Clouds
1:13 PM 30.2 °F 19.3 °F 15.8 °F 55% 30.20 in 10.0 mi North 15.0 mph 24.2 mph N/A   Scattered Clouds
1:33 PM 30.2 °F 19.8 °F 15.8 °F 55% 30.20 in 10.0 mi North 13.8 mph 19.6 mph N/A   Scattered Clouds
1:53 PM 32.0 °F 22.1 °F 15.8 °F 51% 30.20 in 10.0 mi NNW 13.8 mph 21.9 mph N/A   Scattered Clouds
2:12 PM 32.0 °F 22.5 °F 15.8 °F 51% 30.20 in 10.0 mi NNW 12.7 mph 19.6 mph N/A   Scattered Clouds
2:33 PM 32.0 °F 20.8 °F 15.8 °F 51% 30.19 in 10.0 mi North 17.3 mph - N/A   Scattered Clouds
2:52 PM 32.0 °F 20.8 °F 15.8 °F 51% 30.18 in 10.0 mi North 17.3 mph 21.9 mph N/A   Scattered Clouds
3:13 PM 32.0 °F 23.6 °F 15.8 °F 51% 30.19 in 10.0 mi North 10.4 mph 16.1 mph N/A   Scattered Clouds
3:32 PM 33.8 °F 25.8 °F 15.8 °F 48% 30.18 in 10.0 mi NNE 10.4 mph 16.1 mph N/A   Scattered Clouds
3:53 PM 33.8 °F 25.8 °F 15.8 °F 48% 30.18 in 10.0 mi North 10.4 mph 16.1 mph N/A   Scattered Clouds
4:13 PM 33.8 °F 26.4 °F 15.8 °F 48% 30.18 in 10.0 mi North 9.2 mph - N/A   Scattered Clouds
4:32 PM 33.8 °F 24.8 °F 15.8 °F 48% 30.18 in 10.0 mi NNW 12.7 mph - N/A   Scattered Clouds
4:53 PM 33.8 °F 23.9 °F 15.8 °F 48% 30.18 in 10.0 mi North 15.0 mph - N/A   Clear
5:13 PM 33.8 °F 23.9 °F 15.8 °F 48% 30.19 in 10.0 mi North 15.0 mph 19.6 mph N/A   Clear
5:32 PM 33.8 °F 26.4 °F 15.8 °F 48% 30.19 in 10.0 mi North 9.2 mph - N/A   Scattered Clouds
5:52 PM 33.8 °F 25.8 °F 15.8 °F 48% 30.19 in 10.0 mi NNW 10.4 mph - N/A   Scattered Clouds
6:13 PM 33.8 °F 25.8 °F 15.8 °F 48% 30.20 in 10.0 mi North 10.4 mph - N/A   Clear
6:32 PM 33.8 °F 26.4 °F 15.8 °F 48% 30.20 in 10.0 mi NNW 9.2 mph - N/A   Clear
6:53 PM 33.8 °F 26.4 °F 15.8 °F 48% 30.21 in 10.0 mi NNW 9.2 mph - N/A   Clear
7:13 PM 32.0 °F 25.6 °F 15.8 °F 51% 30.21 in 10.0 mi NW 6.9 mph - N/A   Clear
7:33 PM 30.2 °F 23.4 °F 15.8 °F 55% 30.22 in 10.0 mi NW 6.9 mph - N/A   Clear
7:53 PM 30.2 °F 25.4 °F 15.8 °F 55% 30.22 in 10.0 mi NNW 4.6 mph - N/A   Clear
8:12 PM 30.2 °F 23.4 °F 15.8 °F 55% 30.23 in 10.0 mi NNW 6.9 mph - N/A   Clear
8:33 PM 28.4 °F 23.3 °F 15.8 °F 59% 30.23 in 10.0 mi NNW 4.6 mph - N/A   Clear
8:53 PM 28.4 °F 24.6 °F 15.8 °F 59% 30.23 in 10.0 mi NNW 3.5 mph - N/A   Clear
9:13 PM 28.4 °F 24.6 °F 14.0 °F 55% 30.24 in 10.0 mi NNW 3.5 mph - N/A   Clear
9:33 PM 26.6 °F 21.2 °F 14.0 °F 59% 30.24 in 10.0 mi NNW 4.6 mph - N/A   Clear
9:53 PM 26.6 °F 21.2 °F 14.0 °F 59% 30.25 in 10.0 mi NW 4.6 mph - N/A   Clear
10:12 PM 26.6 °F 21.2 °F 15.8 °F 64% 30.25 in 10.0 mi NNW 4.6 mph - N/A   Clear
10:33 PM 26.6 °F 20.0 °F 15.8 °F 64% 30.25 in 10.0 mi NNW 5.8 mph - N/A   Scattered Clouds
10:53 PM 24.8 °F 19.1 °F 15.8 °F 69% 30.26 in 10.0 mi NNW 4.6 mph - N/A   Mostly Cloudy
11:13 PM 24.8 °F 19.1 °F 15.8 °F 69% 30.26 in 10.0 mi NNW 4.6 mph - N/A   Mostly Cloudy
11:32 PM 24.8 °F 19.1 °F 15.8 °F 69% 30.26 in 10.0 mi NNW 4.6 mph - N/A   Mostly Cloudy
11:53 PM 24.8 °F 19.1 °F 15.8 °F 69% 30.26 in 10.0 mi NW 4.6 mph - N/A   Mostly Cloudy